7 * 24
多渠道服务支持
INTELSAT 4A-F4 是一颗由波音公司制造的通信卫星,于2007年发射,用于提供跨大西洋的固定卫星服务(FSS)。该卫星位于地球同步轨道,运行在13°E轨道位置,主要为欧洲、非洲和中东地区提供广播和数据传输服务。INTELSAT 4A-F4 配备C波段和Ku波段转发器,支持电视广播、企业通信和互联网接入等多种应用。该卫星由国际通信卫星组织(Intelsat)运营,是其全球通信网络的重要组成部分。
| 数据来源 | 国际轨道数据 |
| 星历时间: | 2025-10-28T23:04:24+0800 15小时前 查看轨道信息 |
| 半长轴: | 42399.934km |
| 偏心率: | 0.0014817 |
| 轨道倾角: | 9.354° |
| 近地点辐角 | 267.791° |
| 升交点赤经 | 312.647° |
| 平近点角 | 109.721° |
| 近地点: | 35958.975km |
| 远地点: | 36084.623km |
| 周期: | 1448.130分钟 |
| 每日圈数: | 0.994386 |